Location: Newark
(21.1200°N, 73.4000°E)
Time: 21:57:46
(UTC+00:00)

Explorer 11/Cluster Stage 4 - Pass Details

Date: 29 January 2020
Orbit: 467 x 1259 km, 28.8° (Epoch: 19 February)

Event Time Altitude Azimuth Distance (km) Brightness Sun altitude
Rises 04:03:55 0° 213° (SSW) 3,476 9.9 28.1°
Reaches altitude 10° 04:06:44 10° 200° (SSW) 2,670 9.6 28.7°
Maximum altitude 04:12:09 27° 145° (SE) 1,934 10.5 29.7°
Drops below altitude 10° 04:18:21 10° 92° (E) 3,092 10.5 30.8°
Sets 04:21:52 0° 81° (E) 4,133 10.8 31.5°
